When you browse on this site, cookies collect data to enhance your experience and personalize the content and advertising you see.
Visit our Privacy Policy to learn more. By continuing to use the site, you agree to this use of cookies and data.
  • en France
  • Liste des pays
  • À 7 jours
  • Température de l'eau
  • Carte satellitaire
  • Carte météo
  • Widgets météo
  • user-avatar
    Se connecter

    Météo par heure à Yambol

    Ce jour, 22 Mai, Mercredi

    Heure Température Précipitation Vent Pression Humidité
    00:00 +15°C° 0 mm 1 m/s 748 mmHg 80%
    01:00 +14°C° 0 mm 1 m/s 749 mmHg 80%
    02:00 +14°C° 0 mm 1 m/s 749 mmHg 81%
    03:00 +14°C° 0 mm 1 m/s 749 mmHg 81%
    04:00 +14°C° 0 mm 1 m/s 749 mmHg 81%
    05:00 +13°C° 0 mm 1 m/s 749 mmHg 81%
    06:00 +15°C° 0 mm 1 m/s 749 mmHg 74%
    07:00 +19°C° 0 mm 1 m/s 749 mmHg 68%
    08:00 +21°C° 0 mm 1 m/s 749 mmHg 62%
    09:00 +22°C° 0 mm 1 m/s 749 mmHg 57%
    10:00 +24°C° 0 mm 2 m/s 749 mmHg 51%
    11:00 +25°C° 0 mm 2 m/s 749 mmHg 46%
    12:00 +26°C° 0 mm 2 m/s 749 mmHg 44%
    13:00 +26°C° 0 mm 3 m/s 749 mmHg 43%
    14:00 +27°C° 0 mm 3 m/s 749 mmHg 42%
    15:00 +27°C° 0 mm 3 m/s 748 mmHg 43%
    16:00 +27°C° 0 mm 2 m/s 748 mmHg 45%
    17:00 +27°C° 0 mm 2 m/s 748 mmHg 47%
    18:00 +25°C° 0 mm 1 m/s 748 mmHg 52%
    19:00 +23°C° 0 mm 1 m/s 748 mmHg 58%
    20:00 +21°C° 0 mm 1 m/s 748 mmHg 64%
    21:00 +20°C° 0.1 mm 1 m/s 748 mmHg 68%
    22:00 +19°C° 0.1 mm 1 m/s 748 mmHg 72%
    23:00 +18°C° 0.1 mm 1 m/s 748 mmHg 76%

    Demain, 23 Mai, Jeudi

    Heure Température Précipitation Vent Pression Humidité
    00:00 +18°C° 0 mm 1 m/s 748 mmHg 78%
    01:00 +16°C° 0 mm 1 m/s 748 mmHg 81%
    02:00 +15°C° 0 mm 0 m/s 748 mmHg 83%
    03:00 +15°C° 0 mm 1 m/s 748 mmHg 84%
    04:00 +15°C° 0 mm 1 m/s 748 mmHg 85%
    05:00 +15°C° 0 mm 1 m/s 748 mmHg 86%
    06:00 +18°C° 0 mm 1 m/s 748 mmHg 79%
    07:00 +20°C° 0 mm 1 m/s 748 mmHg 73%
    08:00 +21°C° 0 mm 2 m/s 748 mmHg 66%
    09:00 +23°C° 0 mm 2 m/s 748 mmHg 61%
    10:00 +25°C° 0 mm 2 m/s 748 mmHg 57%
    11:00 +26°C° 0 mm 2 m/s 748 mmHg 52%
    12:00 +26°C° 0.1 mm 1 m/s 748 mmHg 51%
    13:00 +27°C° 0.1 mm 1 m/s 748 mmHg 50%
    14:00 +27°C° 0.1 mm 1 m/s 747 mmHg 49%
    15:00 +27°C° 0.4 mm 1 m/s 747 mmHg 54%
    16:00 +26°C° 0.4 mm 2 m/s 747 mmHg 58%
    17:00 +25°C° 0.4 mm 2 m/s 747 mmHg 63%
    18:00 +23°C° 0.3 mm 2 m/s 747 mmHg 69%
    19:00 +20°C° 0.3 mm 2 m/s 747 mmHg 76%
    20:00 +19°C° 0.3 mm 2 m/s 747 mmHg 82%
    21:00 +18°C° 0.7 mm 2 m/s 747 mmHg 85%
    22:00 +17°C° 0.7 mm 2 m/s 747 mmHg 88%
    23:00 +16°C° 0.7 mm 2 m/s 747 mmHg 91%

    Après-demain, 24 Mai, Vendredi

    Heure Température Précipitation Vent Pression Humidité
    00:00 +16°C° 0.5 mm 2 m/s 747 mmHg 91%
    01:00 +16°C° 0.5 mm 2 m/s 746 mmHg 91%
    02:00 +15°C° 0.5 mm 2 m/s 746 mmHg 91%
    03:00 +15°C° 0.2 mm 2 m/s 746 mmHg 91%
    04:00 +15°C° 0.2 mm 1 m/s 746 mmHg 91%
    05:00 +14°C° 0.2 mm 1 m/s 746 mmHg 91%
    06:00 +15°C° 0.2 mm 2 m/s 746 mmHg 88%
    07:00 +17°C° 0.2 mm 2 m/s 746 mmHg 84%
    08:00 +18°C° 0.2 mm 2 m/s 746 mmHg 81%
    09:00 +19°C° 0.1 mm 2 m/s 746 mmHg 75%
    10:00 +20°C° 0.1 mm 2 m/s 746 mmHg 69%
    11:00 +21°C° 0.1 mm 2 m/s 746 mmHg 63%
    12:00 +23°C° 0.5 mm 2 m/s 746 mmHg 61%
    13:00 +24°C° 0.5 mm 2 m/s 745 mmHg 59%
    14:00 +24°C° 0.5 mm 1 m/s 745 mmHg 57%
    15:00 +24°C° 0.4 mm 2 m/s 745 mmHg 60%
    16:00 +24°C° 0.4 mm 2 m/s 745 mmHg 63%
    17:00 +23°C° 0.4 mm 2 m/s 744 mmHg 66%
    18:00 +22°C° 0.6 mm 1 m/s 744 mmHg 72%
    19:00 +20°C° 0.6 mm 1 m/s 744 mmHg 79%
    20:00 +19°C° 0.6 mm 1 m/s 744 mmHg 85%
    21:00 +18°C° 0.3 mm 1 m/s 745 mmHg 86%
    22:00 +18°C° 0.3 mm 1 m/s 745 mmHg 87%
    23:00 +16°C° 0.3 mm 2 m/s 745 mmHg 89%

    25 Mai, Samedi

    Heure Température Précipitation Vent Pression Humidité
    00:00 +16°C° 0.1 mm 2 m/s 745 mmHg 89%
    01:00 +16°C° 0.1 mm 2 m/s 745 mmHg 89%
    02:00 +15°C° 0.1 mm 2 m/s 745 mmHg 89%
    03:00 +15°C° 0 mm 2 m/s 745 mmHg 89%
    04:00 +15°C° 0 mm 2 m/s 745 mmHg 89%
    05:00 +14°C° 0 mm 2 m/s 746 mmHg 89%
    06:00 +16°C° 0 mm 2 m/s 746 mmHg 84%
    07:00 +17°C° 0 mm 3 m/s 746 mmHg 79%
    08:00 +18°C° 0 mm 3 m/s 747 mmHg 73%
    09:00 +20°C° 0 mm 3 m/s 747 mmHg 68%
    10:00 +21°C° 0 mm 3 m/s 747 mmHg 62%
    11:00 +24°C° 0 mm 3 m/s 748 mmHg 57%
    12:00 +24°C° 0.3 mm 3 m/s 747 mmHg 57%
    13:00 +25°C° 0.3 mm 3 m/s 747 mmHg 56%
    14:00 +25°C° 0.3 mm 3 m/s 747 mmHg 56%
    15:00 +25°C° 0.8 mm 2 m/s 747 mmHg 59%
    16:00 +24°C° 0.8 mm 2 m/s 747 mmHg 62%
    17:00 +24°C° 0.8 mm 2 m/s 747 mmHg 65%
    18:00 +21°C° 0.3 mm 2 m/s 747 mmHg 70%
    19:00 +21°C° 0.3 mm 1 m/s 748 mmHg 76%
    20:00 +19°C° 0.3 mm 1 m/s 748 mmHg 82%
    21:00 +18°C° 0 mm 1 m/s 748 mmHg 83%
    22:00 +18°C° 0 mm 1 m/s 749 mmHg 84%
    23:00 +16°C° 0 mm 1 m/s 749 mmHg 85%

    26 Mai, Dimanche

    Heure Température Précipitation Vent Pression Humidité
    00:00 +16°C° 0 mm 1 m/s 749 mmHg 86%
    01:00 +15°C° 0 mm 1 m/s 749 mmHg 86%
    02:00 +15°C° 0 mm 1 m/s 749 mmHg 86%
    03:00 +15°C° 0 mm 1 m/s 749 mmHg 87%
    04:00 +15°C° 0 mm 1 m/s 749 mmHg 87%
    05:00 +14°C° 0 mm 1 m/s 749 mmHg 88%
    06:00 +16°C° 0 mm 1 m/s 750 mmHg 82%
    07:00 +19°C° 0 mm 1 m/s 750 mmHg 76%
    08:00 +21°C° 0 mm 1 m/s 750 mmHg 71%
    09:00 +23°C° 0 mm 2 m/s 750 mmHg 65%
    10:00 +24°C° 0 mm 2 m/s 750 mmHg 59%
    11:00 +26°C° 0 mm 2 m/s 750 mmHg 54%
    12:00 +26°C° 0 mm 3 m/s 750 mmHg 50%
    13:00 +27°C° 0 mm 3 m/s 749 mmHg 47%
    14:00 +27°C° 0 mm 3 m/s 749 mmHg 44%
    15:00 +27°C° 0 mm 3 m/s 749 mmHg 46%
    16:00 +27°C° 0 mm 2 m/s 749 mmHg 49%
    17:00 +27°C° 0 mm 2 m/s 749 mmHg 51%
    18:00 +25°C° 0 mm 2 m/s 749 mmHg 58%
    19:00 +23°C° 0 mm 1 m/s 749 mmHg 65%
    20:00 +21°C° 0 mm 1 m/s 748 mmHg 72%
    21:00 +21°C° 0 mm 1 m/s 749 mmHg 75%
    22:00 +20°C° 0 mm 1 m/s 749 mmHg 78%
    23:00 +17°C° 0 mm 0 m/s 749 mmHg 81%

    27 Mai, Lundi

    Heure Température Précipitation Vent Pression Humidité
    00:00 +19°C° 0 mm 1 m/s 749 mmHg 82%
    01:00 +19°C° 0 mm 1 m/s 749 mmHg 83%
    02:00 +19°C° 0 mm 1 m/s 749 mmHg 84%
    03:00 +18°C° 0 mm 1 m/s 749 mmHg 84%
    04:00 +18°C° 0 mm 1 m/s 749 mmHg 84%
    05:00 +18°C° 0 mm 1 m/s 749 mmHg 84%
    06:00 +19°C° 0 mm 1 m/s 749 mmHg 79%
    07:00 +21°C° 0 mm 1 m/s 749 mmHg 74%
    08:00 +22°C° 0 mm 1 m/s 750 mmHg 69%
    09:00 +24°C° 0 mm 1 m/s 750 mmHg 62%
    10:00 +26°C° 0 mm 1 m/s 750 mmHg 56%
    11:00 +25°C° 0 mm 0 m/s 750 mmHg 49%
    12:00 +28°C° 0 mm 1 m/s 750 mmHg 46%
    13:00 +29°C° 0 mm 1 m/s 750 mmHg 43%
    14:00 +30°C° 0 mm 1 m/s 749 mmHg 40%
    15:00 +29°C° 0 mm 1 m/s 749 mmHg 41%
    16:00 +29°C° 0 mm 1 m/s 749 mmHg 43%
    17:00 +29°C° 0 mm 1 m/s 749 mmHg 44%
    18:00 +27°C° 0 mm 1 m/s 749 mmHg 49%
    19:00 +25°C° 0 mm 1 m/s 749 mmHg 54%
    20:00 +23°C° 0 mm 1 m/s 749 mmHg 59%
    21:00 +22°C° 0 mm 1 m/s 750 mmHg 64%
    22:00 +21°C° 0 mm 1 m/s 750 mmHg 68%
    23:00 +20°C° 0 mm 1 m/s 750 mmHg 73%
    Voir plus